Location: Blienschwiller
(48.3416°N, 7.4182°E)
Time: 09:48:38
(UTC+00:00)

COSMOS 2428 - Pass Details

Date: 18 February 2020
Orbit: 846 x 856 km, 70.9° (Epoch: 10 April)

Event Time Altitude Azimuth Distance (km) Brightness Sun altitude
Exits shadow 04:16:37 18° 330° (NNW) 2,014 4.4 -23.3°
Drops below altitude 10° 04:19:51 10° 5° (N) 2,500 5.3 -22.8°
Sets 04:23:12 0° 24° (NNE) 3,439 6.3 -22.2°
